Weather in Popov

Russia / Volgograd Oblast     50°23′31″N   43°16′44″E
temp.,
°C
wind,
m/s
gust,
m/s
humid.,
%
clouds,
%
prec.,
mm/h
press.,
hPa
HPBL,
m
5 august, thu
thu500:00+19n335970 0.0 101752
03:00+18nne3362100 0.0 101747
06:00+18nne24635 0.0 101897
09:00+24ne2242100 0.0 1017697
12:00+27nnw2232100 0.0 10172253
15:00+28nnw33294 0.0 10162338
18:00+28e1131100 0.0 10161787
21:00+22ene3543100 0.0 101662
6 august, fri
fri600:00+21e344454 0.0 101648
03:00+19ese46499 0.0 101583
06:00+20se38504 0.0 1016153
09:00+27se45315 0.0 1016738
12:00+31ese43255 0.0 10142107
15:00+32ese43225 0.0 10132648
18:00+31ese46235 0.0 1012585
21:00+24ese511335 0.0 1013175
7 august, sat
sat700:00+23ese614365 0.0 1013269
03:00+21ese615386 0.0 1013306
06:00+21se6143517 0.0 1013323
09:00+28se6825100 0.0 1013753
12:00+32ese6620100 0.0 10121826
15:00+34ese5616100 0.0 10112197
18:00+32ese3619100 0.0 1011183
21:00+25e4625100 0.0 101268
8 august, sun
sun800:00+24e4929100 0.0 1011141
03:00+23ese41029100 0.0 1012153
06:00+23ese51030100 0.0 1012188
09:00+30se5823100 0.0 1012419
12:00+35se6717100 0.0 10111737
15:00+34ene3419100 0.0 10111113
18:00+32nne5824100 0.0 1011326
21:00+28ne592899 0.0 1012200
9 august, mon
mon900:00+28ne71428100 0.0 1010416
03:00+28ne10172677 0.0 1009699
06:00+25ne8174582 0.0 1010833
09:00+30ne9112782 0.0 10091336
12:00+33ne67249 0.0 10081860
15:00+35nne672246 0.1 10072632
18:00+34n692370 0.0 10072109
21:00+28nnw7143850 0.0 1009582